Regional Weather Roundup
Issued by NWS

Home | Current Version | Previous Version | Graphics & Text | Print | Product List | Glossary On
Versions: 1 2 3 4 5 6 7 8 9 10 11 12 13 14 15 16 17 18 19 20 21 22 23 24 25 26 27 28 29 30 31 32 33 34 35 36 37 38 39 40 41 42 43 44 45 46 47 48 49 50
000
ASUS43 KMKX 271359
RWRWI

WISCONSIN REGIONAL WEATHER ROUNDUP
NATIONAL WEATHER SERVICE MILWAUKEE/SULLIVAN WI
800 AM CST FRI FEB 27 2015

NOTE: "FAIR" INDICATES FEW OR NO CLOUDS BELOW 12,000 FEET WITH NO
SIGNIFICANT WEATHER AND/OR OBSTRUCTIONS TO VISIBILITY.

WIZ001-002-006>008-014>016-023>028-271500-
NORTHWEST WISCONSIN

CITY           SKY/WX    TMP DP  RH WIND       PRES   REMARKS
SUPERIOR ARPT  MOSUNNY   -9 -14  78 SW8       30.50R WCI -25
ASHLAND        SUNNY     -6 -13  71 W8        30.46R WCI -21
HAYWARD        MOSUNNY  -14 -21  71 S5        30.45R WCI -26
SIREN          MOSUNNY   -8 -14  77 W5        30.50R WCI -20
CUMBERLAND     MOSUNNY  -15 -20  76 S3        30.46R
RICE LAKE      MOSUNNY  -16 -21  78 CALM      30.49S
CHETEK         MOSUNNY  -12 -16  82 CALM      30.49S
LADYSMITH      SUNNY    -18 -24  74 CALM      30.46R
EAU CLAIRE     NOT AVBL
MENOMONIE      MOSUNNY   -5 -12  73 W3        30.53R
NEW RICHMOND   SUNNY    -10 -15  78 CALM      30.51S
OSCEOLA        SUNNY    -11 -16  77 CALM      30.55S
$$

WIZ003>005-009-010-017-018-271500-
NORTH CENTRAL WISCONSIN

CITY           SKY/WX    TMP DP  RH WIND       PRES   REMARKS
MANITOWISH WTR MOSUNNY  -22 -28  73 CALM      30.35S
ARBOR VITAE    MOSUNNY  -11 -18  73 CALM      30.36R
WOODRUFF       MOSUNNY  -11 -18  73 CALM      30.36R
RHINELANDER    MOSUNNY  -11 -18  71 W7        30.37R WCI -26
EAGLE RIVER    MOSUNNY  -18 -25  71 CALM      30.34S
LAND O LAKES   MOSUNNY  -24 -30  72 CALM      30.35R
PHILLIPS       MOSUNNY  -19 -26  70 CALM      30.40R
TOMAHAWK       MOSUNNY  -14 -19  79 CALM      30.40R
MEDFORD        SUNNY    -10 -15  79 CALM      30.41R
MERRILL        SUNNY    -18 -24  71 CALM      30.42R
$$

WIZ029-030-035-036-043>047-271500-
CENTRAL WISCONSIN

CITY           SKY/WX    TMP DP  RH WIND       PRES   REMARKS
WAUSAU         SUNNY     -5 -13  68 NW7       30.44R WCI -19
MOSINEE        SUNNY     -8 -15  71 W6        30.45R WCI -21
MARSHFIELD     SUNNY     -6 -13  71 W7        30.46R WCI -20
STEVENS POINT  SUNNY    -15 -21  75 CALM      30.48R
WAUPACA        SUNNY      0 -11  62 W6        30.50R WCI -12
WAUTOMA        NOT AVBL
WISC RAPIDS    SUNNY     -7 -13  75 CALM      30.51R
CAMP DOUGLAS   NOT AVBL
$$

WIZ011>013-019>022-031-037>040-048>050-271500-
NORTHEAST WISCONSIN

CITY           SKY/WX    TMP DP  RH WIND       PRES   REMARKS
ANTIGO         SUNNY    -11 -17  75 CALM      30.39R
SHAWANO        SUNNY     -2 -12  62 W6        30.49R WCI -14
OCONTO         SUNNY     -5 -10  77 W5        30.49R WCI -15
STURGEON BAY   SUNNY      0  -9  65 W7        30.49R WCI -13
GREEN BAY      SUNNY      1  -8  66 W7        30.51R WCI -12
MANITOWOC      NOT AVBL
APPLETON       SUNNY     -2 -11  65 W9        30.49R WCI -18
CLINTONVILLE   SUNNY     -4 -11  71 W5        30.49R WCI -15
OSHKOSH        SUNNY      0 -10  63 W6        30.51R WCI -12
$$

WIZ032>034-041-042-053>061-271500-
SOUTHWEST WISCONSIN

CITY           SKY/WX    TMP DP  RH WIND       PRES   REMARKS
LA CROSSE      SUNNY     -6 -11  79 S6        30.58R WCI -19
SPARTA         SUNNY    -17 -23  73 CALM      30.55R
VIROQUA        SUNNY     -8 -12  83 CALM      30.49R
BOSCOBEL       SUNNY    -10 -15  78 SW6       30.60R WCI -23
PRAIRIE DU CHI MOSUNNY  -13 -19  74 CALM      30.60R HAZE
PLATTEVILLE    MOSUNNY  -12 -17  79 SW5       30.54R WCI -24
$$

WIZ056-057-062-063-064-067-068-271500-
SOUTH CENTRAL WISCONSIN

CITY           SKY/WX    TMP DP  RH WIND       PRES   REMARKS
REEDSBURG      SUNNY    -10 -15  79 CALM      30.53R
BARABOO/DELLS  SUNNY     -7 -13  76 CALM      30.52R
LONE ROCK      NOT AVBL
MINERAL POINT  SUNNY     -6 -13  71 CALM      30.51R
MADISON        SUNNY      0  -9  65 CALM      30.53R
MIDDLETON      SUNNY     -2 -11  67 W3        30.53R
WATERTOWN      SUNNY     -3  -9  75 CALM      30.52R
MONROE         MOSUNNY   -2  -8  78 NW9       30.51R WCI -18
JANESVILLE     SUNNY     -6 -11  77 CALM      30.54R
$$

WIZ051-052-058>065-066-070>072-271500-
SOUTHEAST WISCONSIN

CITY           SKY/WX    TMP DP  RH WIND       PRES   REMARKS
MILWAUKEE      SUNNY      3  -8  60 NW6       30.53R WCI  -8
WAUKESHA       SUNNY     -2  -9  71 W8        30.52R WCI -17
MILWAUKEE/TIMM SUNNY      0  -9  65 W5        30.53R WCI -10
RACINE         SUNNY      0 -10  63 W10       30.54R WCI -16
BURLINGTON       N/A    N/A N/A N/A MISG        N/A
KENOSHA        SUNNY     -1 -10  65 W9        30.53R WCI -16
FOND DU LAC    SUNNY     -1 -10  65 CALM      30.52R
SHEBOYGAN      SUNNY      1  -9  62 W6        30.51R WCI -10
WEST BEND      SUNNY      1  -8  66 W5        30.50R WCI  -8
JUNEAU         SUNNY     -4 -10  75 SW3       30.52R
$$

LSZ147-162-271500-
LAKE SUPERIOR

STATION/POSITION TIME  TEMP    WIND        PRES    WAVE
                       AIR SEA DIR/SP/G            HT/PER
                 (UTC) (F)     (DEG/KT/KT) (MB)    (FT/S)
DEVILS ISLAND    1300    2     250/ 11/ 15 1032.5R
PORT WING        1300   -6     200/  7/  9 1031.8R
SAXON HARBOR     1300   -4     200/  6/ 10 1031.5
$$

LMZ867-665-643>646-271500-
LAKE MICHIGAN

STATION/POSITION TIME  TEMP    WIND        PRES    WAVE
                       AIR SEA DIR/SP/G            HT/PER
                 (UTC) (F)     (DEG/KT/KT) (MB)    (FT/S)
NORTHPORT PIER   1328    2     270/  5/  9 1031.5R
KEWAUNEE LAKESHO 1300   -1     290/  4/  7 1031.0R
SHEBOYGAN LAKESH 1300    3     270/  8/ 10 1034.7R
PORT WASHINGTON  1340    4     290/  8/ 12 1034.2R
MILWAUKEE LAKESH 1300    3     300/  9/ 11   N/A
KENOSHA   LAKESH 1300   -1     280/ 10/ 14 1032.8R
$$

TC  - TEMPERATURE IN CELSIUS
VSB - VISIBILITY IN STATUTE MILES
WCI - WIND CHILL INDEX
HX  - HEAT INDEX



USA.gov is the U.S. government's official web portal to all federal, state and local government web resources and services.